Location: Newton_East
(35.6670°N, 81.2000°W)
Time: 20:12:18
(UTC-04:00)

ISS - Visible Passes

Search period start: 01 July 2016 00:00
Search period end: 11 July 2016 00:00
Orbit: 402 x 404 km, 51.6° (Epoch: 02 July)

Date Brightness Start Highest point End Pass type
(mag) Time Alt. Az. Time Alt. Az. Time Alt. Az.
05 Jul -1.1 05:37:15 10° S 05:39:42 20° SE 05:42:10 10° E visible
07 Jul -2.9 05:27:22 12° SSW 05:30:18 55° SE 05:33:30 10° ENE visible
08 Jul -1.7 04:36:44 22° SSE 04:37:35 25° SE 04:40:19 10° ENE visible
09 Jul -0.4 03:46:02 10° ESE 03:46:02 10° ESE 03:46:13 10° ESE visible
09 Jul -2.9 05:18:39 16° WSW 05:21:01 52° NW 05:24:13 10° NE visible
10 Jul -3.4 04:27:53 65° S 04:28:09 70° SE 04:31:24 10° NE visible
